Regional Weather Roundup
Issued by NWS

Home | Current Version | Previous Version | Text Only | Print | Product List | Glossary Off
Versions: 1 2 3 4 5 6 7 8 9 10 11 12 13 14 15 16 17 18 19 20 21 22 23 24 25 26 27 28 29 30 31 32 33 34 35 36 37 38 39 40 41 42 43 44 45 46 47 48 49 50

000
ASUS43 KIND 202059
RWRIN

WEATHER ROUNDUP FOR INDIANA
NATIONAL WEATHER SERVICE INDIANAPOLIS IN
500 PM EDT MON APR 20 2015

NOTE: "FAIR" INDICATES FEW OR NO CLOUDS BELOW 12,000 FEET WITH NO
SIGNIFICANT WEATHER AND/OR OBSTRUCTIONS TO VISIBILITY.

* - STATION DOES NOT REPORT WEATHER SUCH AS PRECIPITATION OR FOG.

+ - STATION NOT QUALITY CONTROLLED BY THE NATIONAL WEATHER SERVICE.
    USE DATA WITH CAUTION...ESPECIALLY DEWPOINT AND RELATIVE
    HUMIDITY OBSERVATIONS.

INZ001>003-010>013-019-020-202200-
NORTHWEST INDIANA

CITY           SKY/WX    TMP DP  RH WIND       PRES   REMARKS
GARY /AIRPORT/ CLOUDY    50  30  46 W31G47    29.53R
RENSSELAER +   CLOUDY    50  39  66 W25G32    29.57R

$$

LMZ046-743>745-202200-
SOUTHERN LAKE MICHIGAN

STATION/POSITION TIME  TEMP    WIND        PRES    WAVE
                       AIR SEA DIR/SP/G            HT
                 (UTC) (F)     (DEG/KT/KT) (MB)    (FT)
BURNS HARBOR     2000   47     250/ 27     1000.0R
MICHIGAN CITY    2000   45     220/ 32/ 37   N/A
5NW MICH CITY    2000   45 44  270/ 19/ 25   N/A     5

$$

INZ004-005-014>016-021>024-202200-
NORTH CENTRAL INDIANA

CITY           SKY/WX    TMP DP  RH WIND       PRES   REMARKS
ELKHART        LGT RAIN  46  39  76 W17G29    29.51R
GOSHEN         CLOUDY    47  40  76 W24G31    29.51R
SOUTH BEND     CLOUDY    47  40  76 W20G26    29.51R

$$

INZ006>009-017-018-025>027-202200-
NORTHEAST INDIANA

CITY           SKY/WX    TMP DP  RH WIND       PRES   REMARKS
ANGOLA *+      CLOUDY    46  43  87 W15       29.48R
FORT WAYNE     CLOUDY    49  42  77 W25G37    29.54R

$$

INZ028-029-035-036-043>045-051>053-202200-
WEST CENTRAL INDIANA

CITY           SKY/WX    TMP DP  RH WIND       PRES   REMARKS
CRAWFORDSVL +  CLOUDY    50  32  49 W23G32    29.63R
GREENCASTLE +  CLOUDY    52  32  46 W15G24    29.65R
LAFAYETTE      CLOUDY    50  36  58 W25G33    29.60R
TERRE HAUTE    CLOUDY    54  38  54 W18G28    29.67R

$$

INZ030>032-037>040-046>048-054>057-064-065-202200-
CENTRAL INDIANA

CITY           SKY/WX    TMP DP  RH WIND       PRES   REMARKS
COLUMBUS       CLOUDY    54  37  54 W20G43    29.64R
INDIANAPOLIS   PTSUNNY   56  38  50 W22G32    29.61R
-EAGLE CREEK   CLOUDY    52  37  56 W18G29    29.61R
KOKOMO *+      PTSUNNY   50  45  81 W18G26    29.58S
MT COMFORT *+  MOSUNNY   52  34  50 W23G29    29.62R
SHELBYVILLE    PTSUNNY   57  39  51 W18G31    29.61R

$$

INZ033-034-041-042-049-050-058-059-202200-
EAST CENTRAL INDIANA

CITY           SKY/WX    TMP DP  RH WIND       PRES   REMARKS
MUNCIE         CLOUDY    51  41  68 W25G43    29.59R

$$

INZ060-061-067>069-081>083-085>088-202200-
SOUTHWEST INDIANA

CITY           SKY/WX    TMP DP  RH WIND       PRES   REMARKS
EVANSVILLE     PTSUNNY   60  39  45 W12G23    29.72S
HUNTINGBURG *+ CLOUDY    57  41  54 W16G25    29.71R

$$

INZ062-063-066-070>080-084-089>092-202200-
SOUTH CENTRAL AND SOUTHEAST INDIANA

CITY           SKY/WX    TMP DP  RH WIND       PRES   REMARKS
BLOOMINGTON    CLOUDY    54  37  52 W21G28    29.66R
MADISON *+     CLOUDY    55  37  50 SW17      29.65F

$$



USA.gov is the U.S. government's official web portal to all federal, state and local government web resources and services.